Location: Artiguedieu
(43.5000°N, 0.5454°E)
Time: 13:07:57
(UTC+00:00)

Okean O Rocket - Pass Details

Date: 06 December 2020
Orbit: 622 x 645 km, 98.2° (Epoch: 27 January)

Event Time Altitude Azimuth Distance (km) Brightness Sun altitude
Rises 05:32:48 0° 26° (NNE) 2,964 5.2 -18.1°
Reaches altitude 10° 05:35:23 10° 40° (NE) 2,050 4.5 -17.7°
Maximum altitude 05:39:01 24° 94° (E) 1,336 4.1 -17.0°
Drops below altitude 10° 05:42:38 10° 149° (SSE) 2,037 4.9 -16.4°
Sets 05:45:11 0° 163° (SSE) 2,941 5.5 -16.0°
